Total_Precipitation_Accumulation
0.21 0.26 0.33 0.36 0.29 0.18 0.05 0.01 0.00 0.01 0.01 0.02 0.01 0.01 0.01 0.01 0.01 0.03 0.03 0.02 0.04 0.07 0.12 0.25 0.35 0.42 0.47 0.50 0.50 0.50 0.52 0.54 0.59 0.61 0.65 0.68 0.69 0.71 0.77 0.79 0.80 0.81 0.88 0.91 0.94 0.91 0.87 0.83 0.77
0.22 0.32 0.41 0.45 0.27 0.12 0.03 0.00 0.00 0.01 0.01 0.02 0.02 0.01 0.01 0.02 0.01 0.02 0.03 0.03 0.03 0.05 0.10 0.20 0.34 0.43 0.49 0.51 0.51 0.51 0.53 0.55 0.60 0.64 0.68 0.71 0.72 0.73 0.77 0.79 0.81 0.81 0.84 0.94 0.94 0.90 0.89 0.86 0.83
0.34 0.45 0.48 0.47 0.28 0.08 0.02 0.00 0.00 0.01 0.02 0.02 0.01 0.01 0.01 0.01 0.01 0.02 0.03 0.03 0.04 0.06 0.10 0.21 0.36 0.46 0.55 0.57 0.55 0.55 0.59 0.62 0.66 0.69 0.74 0.78 0.80 0.80 0.81 0.78 0.76 0.75 0.74 0.79 0.81 0.85 0.90 0.90 0.85
0.49 0.63 0.59 0.44 0.20 0.06 0.02 0.01 0.00 0.01 0.02 0.01 0.00 0.01 0.02 0.02 0.02 0.03 0.04 0.04 0.06 0.09 0.14 0.24 0.39 0.52 0.61 0.63 0.61 0.60 0.65 0.70 0.75 0.79 0.82 0.87 0.93 0.92 0.88 0.83 0.82 0.75 0.70 0.72 0.77 0.83 0.90 0.88 0.81
0.63 0.72 0.62 0.39 0.13 0.04 0.02 0.01 0.01 0.01 0.01 0.01 0.01 0.01 0.02 0.02 0.02 0.04 0.06 0.08 0.10 0.14 0.22 0.31 0.46 0.61 0.69 0.73 0.71 0.69 0.74 0.77 0.80 0.84 0.88 0.93 0.98 0.98 0.92 0.87 0.84 0.82 0.79 0.76 0.78 0.84 0.91 0.86 0.79
0.75 0.76 0.54 0.27 0.08 0.02 0.02 0.01 0.01 0.01 0.01 0.01 0.01 0.02 0.03 0.04 0.04 0.06 0.07 0.09 0.11 0.17 0.26 0.39 0.61 0.70 0.75 0.84 0.85 0.82 0.86 0.89 0.89 0.92 0.98 1.02 1.03 1.03 1.02 0.94 0.87 0.87 0.86 0.82 0.82 0.86 0.90 0.82 0.74
0.79 0.68 0.40 0.18 0.07 0.03 0.03 0.02 0.02 0.02 0.02 0.01 0.01 0.03 0.04 0.07 0.08 0.09 0.11 0.14 0.20 0.28 0.38 0.47 0.66 0.79 0.88 0.98 1.02 0.99 1.00 1.02 1.00 1.02 1.06 1.11 1.10 1.09 1.07 1.03 0.94 0.92 0.90 0.94 0.90 0.85 0.82 0.77 0.70
0.80 0.74 0.40 0.20 0.11 0.07 0.05 0.04 0.03 0.03 0.03 0.03 0.03 0.04 0.05 0.08 0.09 0.13 0.17 0.25 0.33 0.40 0.48 0.58 0.70 0.83 0.94 1.07 1.17 1.21 1.21 1.20 1.22 1.21 1.12 1.11 1.20 1.23 1.20 1.10 1.04 1.01 0.98 0.98 0.99 0.91 0.81 0.74 0.68
0.89 0.91 0.46 0.20 0.14 0.10 0.08 0.08 0.05 0.04 0.05 0.05 0.05 0.04 0.06 0.09 0.13 0.20 0.29 0.39 0.48 0.55 0.62 0.74 0.82 0.89 0.99 1.09 1.19 1.39 1.50 1.49 1.44 1.41 1.29 1.29 1.30 1.27 1.22 1.12 1.07 1.01 1.02 0.98 1.02 1.03 0.94 0.84 0.76
0.99 0.77 0.37 0.18 0.15 0.13 0.11 0.11 0.08 0.09 0.10 0.08 0.07 0.07 0.10 0.15 0.21 0.26 0.30 0.38 0.49 0.56 0.68 0.82 0.97 1.03 1.14 1.21 1.29 1.44 1.56 1.61 1.53 1.30 1.31 1.39 1.28 1.23 1.18 1.19 1.21 1.12 1.08 1.06 1.03 1.05 1.01 0.93 0.78
0.82 0.54 0.28 0.19 0.16 0.18 0.17 0.15 0.12 0.13 0.12 0.09 0.09 0.10 0.15 0.21 0.26 0.32 0.35 0.39 0.49 0.56 0.71 0.87 1.07 1.21 1.31 1.31 1.31 1.37 1.47 1.56 1.55 1.35 1.20 1.24 1.29 1.30 1.32 1.24 1.28 1.28 1.22 1.22 1.15 1.10 0.99 0.89 0.82
0.60 0.39 0.29 0.26 0.21 0.23 0.23 0.20 0.17 0.13 0.10 0.11 0.14 0.12 0.16 0.23 0.29 0.35 0.38 0.41 0.50 0.61 0.75 0.93 1.09 1.27 1.39 1.45 1.42 1.40 1.42 1.47 1.48 1.45 1.37 1.27 1.26 1.20 1.16 1.16 1.09 1.10 1.07 1.09 1.10 1.00 0.91 0.85 0.79
0.47 0.35 0.29 0.28 0.28 0.28 0.29 0.27 0.21 0.12 0.09 0.14 0.18 0.18 0.19 0.23 0.31 0.42 0.47 0.48 0.54 0.63 0.77 1.00 1.16 1.29 1.45 1.57 1.56 1.56 1.52 1.38 1.43 1.51 1.56 1.42 1.25 1.18 1.15 1.12 1.09 1.03 0.99 0.98 0.98 0.91 0.83 0.78 0.74
0.39 0.35 0.30 0.27 0.29 0.32 0.36 0.35 0.30 0.16 0.13 0.21 0.23 0.23 0.24 0.25 0.33 0.45 0.56 0.57 0.55 0.64 0.79 1.06 1.25 1.33 1.49 1.57 1.55 1.57 1.63 1.51 1.52 1.55 1.50 1.55 1.46 1.30 1.28 1.26 1.15 1.08 1.01 0.97 0.96 0.93 0.87 0.80 0.74
0.41 0.48 0.40 0.30 0.28 0.31 0.42 0.48 0.34 0.20 0.20 0.28 0.29 0.30 0.32 0.32 0.36 0.44 0.58 0.64 0.60 0.67 0.83 1.07 1.29 1.43 1.54 1.54 1.56 1.60 1.66 1.65 1.57 1.54 1.51 1.57 1.56 1.52 1.43 1.40 1.32 1.18 1.12 1.09 1.05 1.04 0.97 0.91 0.82
0.63 0.78 0.66 0.37 0.30 0.35 0.53 0.52 0.26 0.22 0.28 0.30 0.35 0.34 0.37 0.36 0.36 0.45 0.61 0.76 0.76 0.79 0.85 1.03 1.28 1.43 1.54 1.58 1.58 1.58 1.66 1.67 1.64 1.62 1.57 1.55 1.64 1.65 1.67 1.55 1.45 1.31 1.29 1.25 1.21 1.14 1.10 0.98 0.90
0.94 0.90 0.63 0.41 0.35 0.43 0.57 0.44 0.23 0.24 0.33 0.36 0.40 0.39 0.40 0.43 0.41 0.45 0.57 0.75 0.83 0.83 0.90 1.05 1.24 1.37 1.49 1.65 1.72 1.65 1.66 1.71 1.75 1.71 1.68 1.55 1.63 1.74 1.81 1.82 1.69 1.54 1.48 1.40 1.29 1.17 1.12 1.07 0.98
0.82 0.65 0.49 0.41 0.39 0.43 0.50 0.39 0.26 0.25 0.33 0.38 0.44 0.44 0.40 0.47 0.43 0.45 0.55 0.72 0.86 0.90 0.97 1.08 1.22 1.39 1.50 1.74 1.88 1.91 1.78 1.77 1.78 1.74 1.65 1.63 1.65 1.69 1.71 1.79 1.86 1.81 1.74 1.65 1.52 1.37 1.20 1.10 1.04
0.52 0.59 0.50 0.34 0.33 0.44 0.45 0.36 0.26 0.25 0.31 0.39 0.43 0.47 0.42 0.45 0.48 0.52 0.60 0.68 0.87 0.96 1.00 1.11 1.16 1.34 1.51 1.68 1.85 1.88 1.84 1.78 1.75 1.67 1.60 1.54 1.59 1.64 1.67 1.61 1.69 1.76 1.73 1.68 1.63 1.56 1.48 1.33 1.20
0.61 0.69 0.54 0.37 0.32 0.48 0.48 0.39 0.28 0.26 0.31 0.39 0.40 0.46 0.49 0.49 0.54 0.58 0.65 0.72 0.88 1.01 1.00 1.10 1.21 1.31 1.36 1.47 1.63 1.74 1.79 1.80 1.79 1.68 1.68 1.57 1.52 1.54 1.64 1.66 1.58 1.58 1.61 1.61 1.57 1.53 1.50 1.46 1.33
0.71 0.62 0.51 0.46 0.44 0.54 0.61 0.56 0.34 0.29 0.27 0.35 0.40 0.45 0.55 0.59 0.61 0.63 0.67 0.74 0.89 1.02 1.05 1.07 1.19 1.32 1.36 1.48 1.66 1.79 1.97 1.98 2.02 1.85 1.69 1.60 1.54 1.48 1.49 1.59 1.61 1.56 1.53 1.53 1.50 1.43 1.37 1.37 1.28
0.75 0.43 0.44 0.51 0.78 0.88 0.76 0.88 0.43 0.30 0.29 0.35 0.41 0.45 0.55 0.60 0.61 0.68 0.69 0.77 0.88 0.96 1.09 1.12 1.23 1.35 1.39 1.53 1.70 1.71 1.84 1.86 1.79 1.67 1.60 1.53 1.53 1.50 1.43 1.42 1.48 1.53 1.50 1.44 1.42 1.43 1.38 1.39 1.37
0.60 0.38 0.49 0.62 0.87 1.03 0.77 0.86 0.49 0.28 0.34 0.35 0.39 0.42 0.51 0.60 0.59 0.66 0.70 0.69 0.80 0.89 1.04 1.14 1.27 1.40 1.46 1.50 1.66 1.70 1.64 1.65 1.69 1.72 1.66 1.59 1.57 1.50 1.44 1.41 1.40 1.42 1.43 1.36 1.34 1.39 1.42 1.43 1.38
0.58 0.68 0.83 0.94 1.36 1.63 0.68 0.66 0.54 0.46 0.54 0.44 0.39 0.43 0.52 0.59 0.62 0.65 0.65 0.63 0.74 0.88 1.02 1.13 1.25 1.36 1.45 1.47 1.57 1.72 1.66 1.58 1.59 1.69 1.74 1.70 1.65 1.57 1.44 1.34 1.33 1.31 1.29 1.29 1.26 1.27 1.28 1.33 1.34
0.95 1.43 2.11 2.25 2.24 1.36 0.37 0.50 0.61 0.49 0.48 0.52 0.50 0.48 0.50 0.56 0.63 0.69 0.59 0.62 0.67 0.79 0.94 1.07 1.23 1.28 1.33 1.39 1.48 1.55 1.66 1.60 1.49 1.46 1.52 1.66 1.69 1.59 1.49 1.40 1.29 1.23 1.21 1.20 1.19 1.21 1.23 1.20 1.23
1.03 1.29 1.72 1.70 1.16 0.53 0.30 0.50 0.54 0.40 0.34 0.35 0.38 0.46 0.49 0.52 0.56 0.61 0.59 0.61 0.64 0.68 0.80 0.94 1.07 1.23 1.33 1.37 1.41 1.46 1.51 1.61 1.49 1.40 1.34 1.43 1.52 1.45 1.38 1.42 1.34 1.23 1.20 1.22 1.20 1.18 1.18 1.22 1.17
0.92 1.01 0.87 1.16 0.83 0.58 0.48 0.43 0.36 0.19 0.19 0.23 0.29 0.40 0.51 0.56 0.57 0.54 0.57 0.62 0.61 0.67 0.72 0.86 0.96 1.10 1.28 1.40 1.41 1.42 1.43 1.48 1.48 1.40 1.36 1.34 1.34 1.38 1.37 1.40 1.40 1.32 1.32 1.36 1.34 1.29 1.21 1.21 1.23
0.73 0.89 1.10 1.53 1.28 0.74 0.48 0.44 0.50 0.35 0.35 0.30 0.33 0.41 0.51 0.60 0.63 0.57 0.52 0.59 0.61 0.64 0.69 0.75 0.89 1.00 1.14 1.33 1.48 1.44 1.39 1.36 1.41 1.44 1.43 1.38 1.32 1.33 1.35 1.40 1.44 1.39 1.34 1.40 1.45 1.38 1.30 1.30 1.26
0.81 1.10 1.38 1.44 1.09 0.88 0.61 0.60 0.60 0.52 0.51 0.44 0.40 0.44 0.52 0.59 0.64 0.59 0.51 0.51 0.57 0.61 0.71 0.75 0.81 0.94 1.05 1.15 1.33 1.41 1.39 1.37 1.40 1.42 1.38 1.39 1.35 1.32 1.30 1.30 1.38 1.46 1.42 1.37 1.44 1.41 1.34 1.34 1.27
0.70 0.95 1.19 1.46 1.06 0.67 0.64 0.63 0.47 0.44 0.47 0.43 0.40 0.39 0.44 0.52 0.57 0.57 0.49 0.47 0.53 0.63 0.69 0.78 0.82 0.84 0.93 1.04 1.17 1.30 1.35 1.35 1.38 1.36 1.36 1.40 1.40 1.35 1.27 1.24 1.31 1.39 1.42 1.39 1.40 1.38 1.33 1.32 1.30